Hourly Data Report for January 03, 2022

OTTAWA INTL A
ONTARIO
Current Station Operator: NAVCAN

45°19'00.000" N
75°40'00.000" W
114.90 m
6106001
71628
YOW

Download Data

Hourly Data (January 2022)
Hourly Data Report for January 3, 2022
TIME
LST
Temp Definition
°C
Dew Point Definition
°C
Rel Hum Definition
%
Precip. Amount Definition
mm

Wind Dir Definition
10's deg

Wind Spd Definition
km/h
Visibility Definition
km
Stn Press Definition
kPa
Hmdx Definition


Wind Chill Definition


Weather Definition


00:00 -15.9 -21.2 65   33 22 24.1 100.84   -26 LegendNANA
01:00 -16.6 -21.3 68   33 17 24.1 100.83   -25 Clear
02:00 -17.8 -21.9 71   31 14 24.1 101.00   -26 LegendNANA
03:00 -17.4 -21.7 70   34 14 24.1 101.14   -26 LegendNANA
04:00 -18.0 -22.1 71   32 11 24.1 101.20   -25 Clear
05:00 -18.1 -22.4 70   34 14 24.1 101.27   -26 LegendNANA
06:00 -19.1 -22.6 74   32 10 24.1 101.35   -26 LegendNANA
07:00 -18.5 -22.5 71   34 10 24.1 101.31   -25 Clear
08:00 -18.8 -22.2 75   33 17 24.1 101.31   -28 LegendNANA
09:00 -18.3 -21.9 74   32 4 24.1 101.31   -22 LegendNANA
10:00 -16.8 -21.5 67   31 5 24.1 101.45   -21 Clear
11:00 -15.8 -21.4 63   28 4 24.1 101.45   -19 LegendNANA
12:00 -14.7 -20.5 62   31 12 24.1 101.29   -22 LegendNANA
13:00 -13.6 -20.5 57   29 5 24.1 101.28   -17 Clear
14:00 -13.1 -19.9 57   24 7 24.1 101.23   -18 LegendNANA
15:00 -12.8 -20.9 51   26 7 24.1 101.22   -17 LegendNANA
16:00 -13.1 -20.8 53   22 8 24.1 101.26   -18 Mainly Clear
17:00 -14.9 -21.0 60   16 3 24.1 101.22   -17 LegendNANA
18:00 -15.0 -20.9 61   20 3 24.1 101.22   -17 LegendNANA
19:00 -16.3 -21.1 67   16 5 24.1 101.25   -20 Clear
20:00 -15.6 -20.6 66   20 7 24.1 101.26   -21 LegendNANA
21:00 -16.4 -21.1 67   17 9 24.1 101.21   -22 LegendNANA
22:00 -16.0 -20.8 67   17 12 24.1 101.19   -23 Mostly Cloudy
23:00 -16.9 -20.8 72   18 10 24.1 101.17   -24 LegendNANA

Notes on Data Quality.

Legend

  • E = Estimated
  • M = Missing
  • NA = Not Available*
  • [empty] = Indicates an unobserved value
Date modified: